Time,TemperatureF,DewpointF,PressureIn,WindDirection,WindDirectionDegrees,WindSpeedMPH,WindSpeedGustMPH,Humidity,HourlyPrecipIn,Conditions,Clouds,dailyrainin,SoftwareType,DateUTC
2013-01-14 00:08:00,73.3,63.0,30.14,NE,34,1.0,6.0,70,0.00,,,0.00,weatherlink.com 1.10,2013-01-14 05:08:00,
2013-01-14 00:23:00,72.9,64.0,30.14,East,93,0.0,2.0,73,0.00,,,0.00,weatherlink.com 1.10,2013-01-14 05:23:00,
2013-01-14 00:38:00,72.8,64.0,30.15,ENE,65,0.0,3.0,74,0.00,,,0.00,weatherlink.com 1.10,2013-01-14 05:38:00,
2013-01-14 00:53:00,72.8,65.0,30.14,ENE,77,2.0,3.0,77,0.00,,,0.00,weatherlink.com 1.10,2013-01-14 05:53:00,
2013-01-14 01:08:00,72.9,65.0,30.14,NE,44,2.0,3.0,76,0.00,,,0.00,weatherlink.com 1.10,2013-01-14 06:08:00,
2013-01-14 01:23:00,73.1,66.0,30.14,NE,42,0.0,5.0,78,0.00,,,0.00,weatherlink.com 1.10,2013-01-14 06:23:00,
2013-01-14 01:38:00,73.1,65.0,30.14,ENE,65,1.0,4.0,76,0.00,,,0.00,weatherlink.com 1.10,2013-01-14 06:38:00,
2013-01-14 01:53:00,73.0,65.0,30.15,ENE,69,2.0,5.0,75,0.00,,,0.00,weatherlink.com 1.10,2013-01-14 06:53:00,
2013-01-14 02:08:00,72.9,65.0,30.15,NE,56,0.0,2.0,76,0.00,,,0.00,weatherlink.com 1.10,2013-01-14 07:08:00,
2013-01-14 02:23:00,72.9,65.0,30.15,NE,49,0.0,3.0,76,0.00,,,0.00,weatherlink.com 1.10,2013-01-14 07:23:00,
2013-01-14 02:38:00,73.3,65.0,30.15,NE,44,2.0,6.0,76,0.00,,,0.00,weatherlink.com 1.10,2013-01-14 07:38:00,
2013-01-14 02:53:00,73.4,66.0,30.14,North,6,2.0,4.0,77,0.00,,,0.00,weatherlink.com 1.10,2013-01-14 07:53:00,
2013-01-14 03:08:00,73.1,66.0,30.14,NE,47,4.0,5.0,77,0.00,,,0.00,weatherlink.com 1.10,2013-01-14 08:08:00,
2013-01-14 03:23:00,73.0,65.0,30.14,NE,44,0.0,5.0,75,0.00,,,0.00,weatherlink.com 1.10,2013-01-14 08:23:00,
2013-01-14 03:38:00,72.8,65.0,30.13,East,79,2.0,4.0,76,0.00,,,0.00,weatherlink.com 1.10,2013-01-14 08:38:00,
2013-01-14 03:53:00,72.9,65.0,30.13,NNE,25,1.0,3.0,76,0.00,,,0.00,weatherlink.com 1.10,2013-01-14 08:53:00,
2013-01-14 04:08:00,72.6,65.0,30.13,ENE,68,0.0,1.0,76,0.00,,,0.00,weatherlink.com 1.10,2013-01-14 09:08:00,
2013-01-14 04:23:00,72.1,64.0,30.13,ESE,119,0.0,1.0,76,0.00,,,0.00,weatherlink.com 1.10,2013-01-14 09:23:00,
2013-01-14 04:38:00,72.5,64.0,30.13,NE,43,0.0,2.0,75,0.00,,,0.00,weatherlink.com 1.10,2013-01-14 09:38:00,
2013-01-14 04:53:00,73.3,65.0,30.13,ENE,78,0.0,2.0,76,0.00,,,0.00,weatherlink.com 1.10,2013-01-14 09:53:00,
2013-01-14 05:08:00,73.3,66.0,30.14,NE,44,0.0,3.0,77,0.00,,,0.00,weatherlink.com 1.10,2013-01-14 10:08:00,
2013-01-14 05:23:00,73.3,66.0,30.14,East,101,0.0,2.0,77,0.00,,,0.00,weatherlink.com 1.10,2013-01-14 10:23:00,
2013-01-14 05:38:00,73.3,66.0,30.14,ESE,102,0.0,2.0,77,0.00,,,0.00,weatherlink.com 1.10,2013-01-14 10:38:00,
2013-01-14 05:54:00,73.1,66.0,30.14,NE,44,0.0,3.0,77,0.00,,,0.00,weatherlink.com 1.10,2013-01-14 10:54:00,
2013-01-14 06:09:00,73.0,66.0,30.15,NE,49,0.0,0.0,78,0.00,,,0.00,weatherlink.com 1.10,2013-01-14 11:09:00,
2013-01-14 06:24:00,72.7,66.0,30.16,NE,49,0.0,0.0,79,0.00,,,0.00,weatherlink.com 1.10,2013-01-14 11:24:00,
2013-01-14 06:39:00,72.3,66.0,30.16,NE,49,0.0,0.0,80,0.00,,,0.00,weatherlink.com 1.10,2013-01-14 11:39:00,
2013-01-14 06:54:00,71.6,66.0,30.16,NE,49,0.0,0.0,81,0.00,,,0.00,weatherlink.com 1.10,2013-01-14 11:54:00,
2013-01-14 07:09:00,70.7,65.0,30.16,NE,49,0.0,0.0,82,0.00,,,0.00,weatherlink.com 1.10,2013-01-14 12:09:00,
2013-01-14 07:24:00,69.4,65.0,30.16,NE,49,0.0,0.0,85,0.00,,,0.00,weatherlink.com 1.10,2013-01-14 12:24:00,
2013-01-14 07:39:00,68.5,65.0,30.16,NE,49,0.0,0.0,87,0.00,,,0.00,weatherlink.com 1.10,2013-01-14 12:39:00,
2013-01-14 07:54:00,70.1,65.0,30.16,ENE,68,1.0,2.0,85,0.00,,,0.00,weatherlink.com 1.10,2013-01-14 12:54:00,
2013-01-14 08:09:00,73.0,67.0,30.16,SE,134,3.0,3.0,81,0.00,,,0.00,weatherlink.com 1.10,2013-01-14 13:09:00,
2013-01-14 08:24:00,73.8,67.0,30.17,NE,47,2.0,4.0,79,0.00,,,0.00,weatherlink.com 1.10,2013-01-14 13:24:00,
2013-01-14 08:39:00,74.0,67.0,30.17,NE,56,3.0,4.0,78,0.00,,,0.00,weatherlink.com 1.10,2013-01-14 13:39:00,
2013-01-14 08:54:00,74.3,67.0,30.17,ESE,115,0.0,4.0,78,0.00,,,0.00,weatherlink.com 1.10,2013-01-14 13:54:00,
2013-01-14 09:09:00,75.1,67.0,30.17,SSE,159,0.0,5.0,77,0.00,,,0.00,weatherlink.com 1.10,2013-01-14 14:09:00,
2013-01-14 09:24:00,75.8,68.0,30.18,NE,40,1.0,4.0,77,0.00,,,0.00,weatherlink.com 1.10,2013-01-14 14:24:00,
2013-01-14 09:39:00,75.7,68.0,30.18,NE,47,0.0,6.0,76,0.00,,,0.00,weatherlink.com 1.10,2013-01-14 14:39:00,
2013-01-14 09:54:00,76.1,68.0,30.18,ENE,71,4.0,4.0,75,0.00,,,0.00,weatherlink.com 1.10,2013-01-14 14:54:00,
2013-01-14 10:09:00,78.8,69.0,30.18,ENE,67,1.0,7.0,71,0.00,,,0.00,weatherlink.com 1.10,2013-01-14 15:09:00,
2013-01-14 10:24:00,79.4,69.0,30.18,ENE,77,2.0,7.0,70,0.00,,,0.00,weatherlink.com 1.10,2013-01-14 15:24:00,
2013-01-14 10:39:00,80.3,68.0,30.18,NE,44,0.0,7.0,66,0.00,,,0.00,weatherlink.com 1.10,2013-01-14 15:39:00,
2013-01-14 10:54:00,78.2,68.0,30.18,SE,127,1.0,5.0,70,0.00,,,0.00,weatherlink.com 1.10,2013-01-14 15:54:00,
2013-01-14 11:09:00,77.7,66.0,30.17,SE,143,1.0,4.0,68,0.00,,,0.00,weatherlink.com 1.10,2013-01-14 16:09:00,
2013-01-14 11:24:00,79.1,66.0,30.17,NNE,29,5.0,6.0,64,0.00,,,0.00,weatherlink.com 1.10,2013-01-14 16:24:00,
2013-01-14 11:39:00,79.7,66.0,30.16,NE,34,0.0,6.0,64,0.00,,,0.00,weatherlink.com 1.10,2013-01-14 16:39:00,
2013-01-14 11:54:00,80.3,67.0,30.16,East,79,2.0,5.0,64,0.00,,,0.00,weatherlink.com 1.10,2013-01-14 16:54:00,
2013-01-14 12:09:00,78.9,67.0,30.16,NE,53,1.0,6.0,66,0.00,,,0.00,weatherlink.com 1.10,2013-01-14 17:09:00,
2013-01-14 12:24:00,79.2,67.0,30.15,South,173,0.0,3.0,66,0.00,,,0.00,weatherlink.com 1.10,2013-01-14 17:24:00,
2013-01-14 12:39:00,78.2,68.0,30.15,NE,38,0.0,4.0,70,0.00,,,0.00,weatherlink.com 1.10,2013-01-14 17:39:00,
2013-01-14 12:54:00,77.9,69.0,30.14,ENE,60,4.0,4.0,74,0.00,,,0.00,weatherlink.com 1.10,2013-01-14 17:54:00,
2013-01-14 13:09:00,77.4,67.0,30.13,NE,43,3.0,4.0,71,0.00,,,0.00,weatherlink.com 1.10,2013-01-14 18:09:00,
2013-01-14 13:24:00,77.3,68.0,30.14,ENE,60,0.0,4.0,72,0.00,,,0.00,weatherlink.com 1.10,2013-01-14 18:24:00,
2013-01-14 13:39:00,77.4,69.0,30.14,ESE,113,0.0,3.0,74,0.00,,,0.00,weatherlink.com 1.10,2013-01-14 18:39:00,
2013-01-14 13:54:00,77.7,68.0,30.14,SE,124,1.0,4.0,72,0.00,,,0.00,weatherlink.com 1.10,2013-01-14 18:54:00,
2013-01-14 14:09:00,78.6,68.0,30.13,NE,49,1.0,4.0,70,0.00,,,0.00,weatherlink.com 1.10,2013-01-14 19:09:00,
2013-01-14 14:24:00,79.0,68.0,30.13,East,91,0.0,4.0,69,0.00,,,0.00,weatherlink.com 1.10,2013-01-14 19:24:00,
2013-01-14 14:39:00,79.4,68.0,30.13,SE,134,2.0,4.0,69,0.00,,,0.00,weatherlink.com 1.10,2013-01-14 19:39:00,
2013-01-14 14:54:00,78.9,68.0,30.13,NE,38,2.0,5.0,69,0.00,,,0.00,weatherlink.com 1.10,2013-01-14 19:54:00,
2013-01-14 15:09:00,78.1,68.0,30.14,NE,45,3.0,3.0,71,0.00,,,0.00,weatherlink.com 1.10,2013-01-14 20:09:00,
2013-01-14 15:24:00,77.8,68.0,30.14,NE,42,0.0,4.0,71,0.00,,,0.00,weatherlink.com 1.10,2013-01-14 20:24:00,
2013-01-14 15:39:00,77.2,68.0,30.14,NE,42,3.0,5.0,72,0.00,,,0.00,weatherlink.com 1.10,2013-01-14 20:39:00,
2013-01-14 15:54:00,77.0,68.0,30.14,NE,39,1.0,3.0,73,0.00,,,0.00,weatherlink.com 1.10,2013-01-14 20:54:00,
2013-01-14 16:09:00,76.2,68.0,30.15,NE,39,1.0,4.0,76,0.00,,,0.00,weatherlink.com 1.10,2013-01-14 21:09:00,
2013-01-14 16:24:00,76.0,67.0,30.15,SE,146,1.0,3.0,74,0.00,,,0.00,weatherlink.com 1.10,2013-01-14 21:24:00,
2013-01-14 16:39:00,76.1,67.0,30.16,NE,41,3.0,4.0,74,0.00,,,0.00,weatherlink.com 1.10,2013-01-14 21:39:00,
2013-01-14 16:54:00,76.5,68.0,30.16,SE,124,0.0,3.0,74,0.00,,,0.00,weatherlink.com 1.10,2013-01-14 21:54:00,
2013-01-14 17:09:00,76.1,68.0,30.16,ENE,77,0.0,6.0,75,0.00,,,0.00,weatherlink.com 1.10,2013-01-14 22:09:00,
2013-01-14 17:24:00,74.8,68.0,30.16,East,95,1.0,2.0,79,0.00,,,0.00,weatherlink.com 1.10,2013-01-14 22:24:00,
2013-01-14 17:39:00,74.1,68.0,30.17,NE,45,0.0,2.0,80,0.00,,,0.00,weatherlink.com 1.10,2013-01-14 22:39:00,
2013-01-14 17:54:00,73.6,67.0,30.17,East,98,0.0,1.0,81,0.00,,,0.00,weatherlink.com 1.10,2013-01-14 22:54:00,
2013-01-14 18:09:00,73.2,67.0,30.17,East,90,0.0,1.0,82,0.00,,,0.00,weatherlink.com 1.10,2013-01-14 23:09:00,
2013-01-14 18:25:00,72.7,67.0,30.18,East,90,0.0,1.0,82,0.00,,,0.00,weatherlink.com 1.10,2013-01-14 23:25:00,
2013-01-14 18:40:00,72.6,68.0,30.18,East,90,0.0,1.0,84,0.00,,,0.00,weatherlink.com 1.10,2013-01-14 23:40:00,
2013-01-14 19:10:00,73.9,69.0,30.18,ENE,76,3.0,6.0,83,0.00,,,0.00,weatherlink.com 1.10,2013-01-15 00:10:00,
2013-01-14 19:25:00,73.3,69.0,30.18,NE,45,0.0,4.0,86,0.00,,,0.00,weatherlink.com 1.10,2013-01-15 00:25:00,
2013-01-14 19:40:00,73.1,68.0,30.18,SE,143,1.0,3.0,85,0.00,,,0.00,weatherlink.com 1.10,2013-01-15 00:40:00,
2013-01-14 19:55:00,73.6,68.0,30.18,East,86,2.0,6.0,83,0.00,,,0.00,weatherlink.com 1.10,2013-01-15 00:55:00,
2013-01-14 20:10:00,73.9,68.0,30.18,ENE,72,1.0,4.0,81,0.00,,,0.00,weatherlink.com 1.10,2013-01-15 01:10:00,
2013-01-14 20:25:00,73.9,68.0,30.17,ENE,57,2.0,4.0,81,0.00,,,0.00,weatherlink.com 1.10,2013-01-15 01:25:00,
2013-01-14 20:40:00,73.9,68.0,30.17,ESE,113,2.0,6.0,81,0.00,,,0.00,weatherlink.com 1.10,2013-01-15 01:40:00,
2013-01-14 20:55:00,73.7,68.0,30.17,NE,34,2.0,4.0,82,0.00,,,0.00,weatherlink.com 1.10,2013-01-15 01:55:00,
2013-01-14 21:10:00,73.7,68.0,30.17,ENE,74,4.0,7.0,81,0.00,,,0.00,weatherlink.com 1.10,2013-01-15 02:10:00,
2013-01-14 21:25:00,73.5,67.0,30.17,NE,45,4.0,5.0,81,0.00,,,0.00,weatherlink.com 1.10,2013-01-15 02:25:00,
2013-01-14 21:40:00,73.7,68.0,30.17,ENE,58,2.0,7.0,81,0.00,,,0.00,weatherlink.com 1.10,2013-01-15 02:40:00,
2013-01-14 21:55:00,73.6,67.0,30.17,ENE,65,1.0,5.0,81,0.00,,,0.00,weatherlink.com 1.10,2013-01-15 02:55:00,
2013-01-14 22:10:00,73.6,67.0,30.17,ENE,65,2.0,6.0,80,0.00,,,0.00,weatherlink.com 1.10,2013-01-15 03:10:00,
2013-01-14 22:25:00,73.6,67.0,30.17,ENE,63,2.0,7.0,80,0.00,,,0.00,weatherlink.com 1.10,2013-01-15 03:25:00,
2013-01-14 22:40:00,73.6,67.0,30.16,ENE,68,1.0,5.0,80,0.00,,,0.00,weatherlink.com 1.10,2013-01-15 03:40:00,
2013-01-14 22:55:00,73.5,67.0,30.16,East,89,0.0,4.0,81,0.00,,,0.00,weatherlink.com 1.10,2013-01-15 03:55:00,
2013-01-14 23:10:00,73.6,67.0,30.16,ENE,58,1.0,6.0,81,0.00,,,0.00,weatherlink.com 1.10,2013-01-15 04:10:00,
2013-01-14 23:25:00,73.7,67.0,30.16,East,98,1.0,6.0,80,0.00,,,0.00,weatherlink.com 1.10,2013-01-15 04:25:00,
2013-01-14 23:40:00,73.7,67.0,30.15,ENE,58,1.0,7.0,80,0.00,,,0.00,weatherlink.com 1.10,2013-01-15 04:40:00,
2013-01-14 23:55:00,73.5,67.0,30.15,East,93,3.0,6.0,79,0.00,,,0.00,weatherlink.com 1.10,2013-01-15 04:55:00,